Regional Weather Roundup
Issued by NWS Kansas City/Pleasant Hill, MO

Home | Current Version | Previous Version | Graphics & Text | Print | Product List | Glossary Off
Versions: 1 2 3 4 5 6 7 8 9 10 11 12 13 14 15 16 17 18 19 20 21 22 23 24 25 26 27

000
ASUS43 KEAX 270510
RWREAX

WEATHER ROUNDUP FOR EASTERN KANSAS AND NORTHWEST MISSOURI
NATIONAL WEATHER SERVICE KANSAS CITY/PLEASANT HILL MO
1200 AM CDT WED JUL 27 2016

KSZ040-057-103>105-MOZ028-029-037-043-270600-
...KANSAS CITY METROPOLITAN AREA...

CITY           SKY/WX    TMP DP  RH WIND       PRES   REMARKS
K.C. INTL      CLEAR     77  67  71 E6        30.01R
K.C. DOWNTOWN  CLEAR     77  67  71 NE5       29.98S
LEES SUMMIT    PTCLDY    77  68  73 NE7       30.00S
OLATHE - IXD   CLEAR     74  68  81 NE3       30.00F
OLATHE - OJC   CLEAR     74  67  78 NE5       30.00S
LAWRENCE       CLEAR     69  67  93 NW5       29.99S

$$

MOZ001>008-011>017-020>025-030>033-038>040-044>046-053-054-270600-
...NORTHERN AND CENTRAL MISSOURI...

CITY           SKY/WX    TMP DP  RH WIND       PRES   REMARKS
ST. JOSEPH     CLEAR     71  66  84 CALM      30.01S
MOSBY          CLEAR     70  68  94 CALM      29.99S
WHITEMAN AFB   PTCLDY    75  75 100 NE1       29.97F
CLINTON        PTCLDY    73  73 100 CALM      29.98F
SEDALIA        CLEAR     75  71  87 E5        30.00S
WARSAW         NOT AVBL
CHILLICOTHE      N/A     71  68  90 CALM      30.02R
KIRKSVILLE     CLEAR     67  65  93 CALM      30.03R

$$

MOZ041-047>049-056>058-063>065-088>090-097-270600-
...EASTERN AND SOUTHERN MISSOURI...

CITY           SKY/WX    TMP DP  RH WIND       PRES   REMARKS
ST. LOUIS INTL MOCLDY    81  72  74 CALM      29.99F
SPIRIT OF STL  MOCLDY    76  74  93 CALM      29.97F
COLUMBIA       PTCLDY    75  73  93 CALM      29.99F
JEFFERSON CITY CLOUDY    75  73  93 E3        29.98F
ROLLA          CLOUDY    72  71  97 SE3       30.00F FOG
OSAGE BEACH    PTCLDY    73  72  96 E5        30.00F
SPRINGFIELD    MOCLDY    74  71  91 CALM      30.00F
BRANSON        CLOUDY    73  73 100 CALM      30.01F FOG
JOPLIN         MOCLDY    73  72  96 CALM      29.98F
WEST PLAINS    PTCLDY    73  70  90 NE3       30.03F

$$

IAZ060-094-KSZ022-034>040-054-083-096-NEZ052-066-093-270600-
...KANSAS...SOUTHEAST NEBRASKA AND IOWA...

CITY           SKY/WX    TMP DP  RH WIND       PRES   REMARKS
TOPEKA         CLEAR     74  69  85 CALM      29.99S
MANHATTAN      CLEAR     71  69  93 CALM      30.00R FOG
EMPORIA        CLEAR     74  70  87 CALM      30.00R
CHANUTE        CLEAR     73  71  93 SE3       29.97F
WICHITA        PTCLDY    78  72  81 SE7       29.99R
OMAHA          CLEAR     76  67  73 SE7       30.01F
LINCOLN        CLEAR     76  64  66 CALM      30.03S
FALLS CITY     CLEAR     72  68  87 CALM      30.01R
LAMONI         CLEAR     71  65  81 SE3       30.02F
DES MOINES     CLEAR     76  65  68 CALM      30.02S

$$





USA.gov is the U.S. government's official web portal to all federal, state and local government web resources and services.